Location: Lancaster
(54.0470°N, 2.8020°W)
Time: 03:00:16
(UTC+00:00)

COSMOS 2428 - Visible Passes

Search period start: 24 January 2017 00:00
Search period end: 03 February 2017 00:00
Orbit: 846 x 856 km, 70.9° (Epoch: 23 January)

Date Brightness Start Highest point End Pass type
(mag) Time Alt. Az. Time Alt. Az. Time Alt. Az.
24 Jan 4.2 18:48:40 10° W 18:53:43 31° NW 18:58:29 11° NNE visible
24 Jan 4.9 20:36:31 10° NW 20:39:54 16° NNW 20:40:31 15° N visible
25 Jan 4.2 18:36:36 10° W 18:41:38 31° NW 18:46:42 10° NNE visible
25 Jan 4.9 20:24:27 10° NW 20:27:49 16° NNW 20:28:50 15° N visible
26 Jan 4.2 18:24:31 10° W 18:29:34 31° NW 18:34:37 10° NNE visible
26 Jan 4.9 20:12:22 10° NW 20:15:45 16° NNW 20:17:09 14° N visible
26 Jan 5.5 21:58:53 10° NNW 21:59:11 11° NNW 21:59:11 11° NNW visible
27 Jan 4.2 18:12:27 10° W 18:17:29 31° NW 18:22:33 10° NNE visible
27 Jan 4.9 20:00:18 10° NW 20:03:41 16° NNW 20:05:28 14° N visible
27 Jan 5.4 21:46:48 10° NNW 21:47:29 12° NNW 21:47:29 12° NNW visible
28 Jan 4.2 18:00:23 10° W 18:05:25 31° NW 18:10:28 10° NNE visible
28 Jan 4.9 19:48:14 10° NW 19:51:36 16° NNW 19:53:45 13° NNE visible
28 Jan 5.3 21:34:44 10° NNW 21:35:46 13° NNW 21:35:46 13° NNW visible
29 Jan 4.2 17:48:18 10° W 17:53:20 31° NW 17:58:23 10° NNE visible
29 Jan 4.9 19:36:10 10° NW 19:39:32 16° NNW 19:42:01 12° NNE visible
29 Jan 5.2 21:22:39 10° NNW 21:24:03 14° N 21:24:03 14° N visible
30 Jan 4.2 17:36:14 10° W 17:41:16 31° NW 17:46:19 10° NNE visible
30 Jan 4.9 19:24:06 10° NW 19:27:28 16° NNW 19:30:18 11° NNE visible
30 Jan 5.1 21:10:35 10° NNW 21:12:19 15° N 21:12:19 15° N visible
31 Jan 4.2 17:24:10 10° W 17:29:12 31° NW 17:34:14 10° NNE visible
31 Jan 4.9 19:12:02 10° NW 19:15:23 16° NNW 19:18:34 11° NNE visible
31 Jan 5.0 20:58:30 10° NNW 21:00:35 15° N 21:00:35 15° N visible
01 Feb 4.9 18:59:57 10° NW 19:03:19 16° NNW 19:06:40 10° NNE visible
01 Feb 4.9 20:46:26 10° NNW 20:48:51 16° N 20:48:51 16° N visible
01 Feb 5.6 22:30:47 10° NNW 22:30:52 10° NNW 22:30:52 10° NNW visible
02 Feb 4.8 18:47:54 10° NW 18:51:15 16° NNW 18:54:36 10° NNE visible
02 Feb 4.8 20:34:22 10° NNW 20:37:07 16° N 20:37:07 16° N visible
02 Feb 5.5 22:18:42 10° NNW 22:19:08 12° NNW 22:19:08 12° NNW visible
